GFSFLT2_250_spd_057.txt.gz
Wind_Speed
88 88 89 86 83 78 79 74 75 72 64 64 56 51 56 56 61 44 39 31 26 22 28 29 22 19 17 17 18 23 24 27
91 91 90 93 86 87 82 75 74 72 68 68 65 56 60 54 59 51 44 38 29 28 28 32 27 21 19 18 20 21 22 23
92 91 91 91 92 91 88 80 74 72 69 72 74 68 62 60 59 50 49 48 31 33 32 34 30 28 22 21 23 23 22 21
92 90 89 89 94 94 95 89 83 78 70 79 83 76 68 69 64 60 56 50 55 50 39 37 37 35 27 25 24 24 24 22
96 96 99 93 93 96 95 95 89 85 79 90 86 83 77 74 67 61 50 56 65 57 49 47 39 37 31 30 29 25 23 23
97 100 102 98 98 100 104 99 94 92 88 91 92 90 86 78 72 64 65 60 62 55 56 46 39 35 34 30 35 31 27 25
96 102 103 99 100 100 99 97 93 94 95 103 98 96 91 83 78 73 69 76 72 71 60 51 45 42 40 34 37 37 32 30
96 101 103 99 102 101 99 94 94 96 95 104 104 97 93 87 82 76 73 78 73 75 74 49 45 43 44 43 42 39 36 35
90 101 105 101 97 100 98 101 99 100 104 108 105 100 95 92 88 85 83 81 77 70 71 57 53 49 38 42 42 47 42 39
88 97 99 95 103 102 106 102 102 105 111 114 106 103 98 97 97 94 88 82 85 79 70 67 57 41 37 43 53 52 48 43
76 91 86 89 95 102 105 103 107 110 113 112 108 104 107 107 102 98 96 88 89 75 66 57 63 55 36 28 63 56 53 50
61 74 76 84 93 102 110 105 111 113 111 108 110 109 111 112 109 105 102 98 91 82 79 74 61 46 64 50 49 58 63 58
52 62 67 75 86 92 95 96 108 109 107 105 112 114 114 118 116 114 107 110 108 100 94 95 82 60 60 67 57 60 66 66
43 51 61 69 80 81 84 90 103 110 107 108 115 119 120 122 124 123 116 114 117 112 106 100 97 84 74 71 72 59 59 61
35 47 54 58 62 68 76 82 95 101 106 108 118 123 125 127 130 129 124 116 116 117 113 104 102 99 93 91 72 71 51 54
29 38 43 48 55 59 64 68 79 93 97 99 110 122 127 132 133 128 124 123 119 119 114 110 109 105 103 100 86 81 73 65
24 26 31 39 47 52 54 56 67 79 88 95 106 122 129 135 134 130 128 127 123 117 117 114 113 110 105 107 103 95 86 76
20 21 25 32 39 45 47 48 55 66 75 88 95 112 127 126 121 129 129 128 127 121 121 117 112 111 109 108 104 99 94 86
8 13 18 24 29 34 39 43 50 54 63 76 84 95 110 117 118 125 129 130 130 125 123 118 116 114 110 108 105 101 96 92

GFSFLT2_250_spd_060.txt.gz
Wind_Speed
88 84 82 81 81 83 81 78 75 76 66 69 68 60 54 53 53 53 51 42 37 39 27 22 29 20 19 21 21 20 25 29
96 92 91 90 86 86 83 81 78 76 73 75 72 66 59 54 54 53 53 44 41 37 27 26 30 27 23 21 23 22 25 25
95 95 97 95 94 90 86 81 79 78 80 79 76 71 66 61 57 50 55 47 42 34 29 30 30 28 24 23 21 24 25 25
94 96 98 100 100 96 91 85 83 79 83 81 81 78 72 65 62 55 58 55 45 44 35 36 33 34 30 29 25 24 23 25
99 101 101 102 104 100 97 94 89 83 89 90 88 81 74 69 69 67 63 60 54 50 39 39 35 34 33 31 27 25 25 23
103 106 102 100 101 102 100 96 94 92 94 92 92 86 79 76 73 73 62 56 57 53 55 46 41 37 35 33 31 29 26 26
103 109 107 104 103 102 101 101 97 95 98 100 96 89 83 81 77 76 70 60 65 62 62 53 46 41 38 35 36 35 33 30
102 108 111 108 105 103 99 104 104 100 100 99 99 93 86 83 82 78 78 69 72 66 68 62 54 49 42 42 40 39 40 37
99 104 109 107 106 109 106 103 107 104 104 99 100 101 92 86 86 83 80 74 75 72 66 62 62 57 47 49 46 42 39 41
89 98 102 101 106 111 109 113 113 107 106 103 97 104 99 92 87 89 86 80 79 76 70 65 66 64 60 55 47 42 45 45
85 93 94 97 107 110 112 114 115 110 109 104 99 104 104 99 93 96 93 91 88 82 78 73 70 65 66 59 53 50 47 52
68 81 89 92 95 101 109 108 110 110 112 109 103 106 108 105 102 97 102 101 96 91 86 80 75 56 68 69 60 57 53 54
56 64 75 82 90 94 94 97 109 111 112 112 110 110 113 112 108 104 106 107 103 98 94 87 79 62 70 75 68 62 61 57
48 54 58 67 76 82 84 86 98 108 112 113 114 114 116 118 115 113 108 113 109 105 102 96 94 85 73 69 69 58 49 57
37 45 47 54 63 69 74 78 93 100 110 112 115 118 118 121 121 118 115 113 116 110 106 101 98 93 82 75 68 66 58 52
27 34 38 45 51 57 63 68 81 93 98 108 115 120 124 123 123 122 118 118 116 115 110 105 103 96 90 85 77 67 71 67
24 26 27 34 41 48 53 57 69 82 91 96 110 120 126 126 127 127 124 123 122 118 117 109 108 103 97 93 86 74 61 74
24 23 23 29 34 40 46 53 61 69 79 90 99 115 121 127 130 132 130 127 128 124 120 116 116 111 102 101 94 91 85 73
25 24 23 24 30 34 39 48 53 62 68 77 89 104 120 127 136 135 127 129 129 129 126 120 120 121 112 114 105 98 94 86

GFSFLT2_250_spd_063.txt.gz
Wind_Speed
86 87 87 85 83 80 81 81 78 78 73 71 68 62 56 53 54 54 55 57 54 47 40 37 38 34 27 20 24 22 22 29
92 90 90 89 88 86 83 81 80 81 81 76 72 65 60 54 56 54 52 49 56 50 38 38 36 37 33 27 29 26 24 26
100 99 96 93 90 88 88 86 83 82 83 78 76 71 66 62 59 55 49 43 44 45 39 34 41 40 36 28 28 32 30 28
105 106 103 100 97 92 89 89 90 87 87 81 79 75 71 67 63 60 55 50 50 46 43 46 42 37 36 32 31 32 25 28
103 104 106 106 104 100 96 95 93 92 89 88 82 78 73 72 69 67 61 52 52 48 47 47 41 40 37 35 30 32 25 25
106 106 104 104 105 105 104 102 100 94 89 92 87 86 80 77 75 74 68 59 52 59 53 52 46 43 39 36 31 31 28 26
106 106 107 107 105 105 105 107 106 101 94 92 91 90 86 83 80 77 74 66 58 59 64 52 47 47 47 41 36 34 32 28
107 107 106 107 110 109 109 108 107 105 103 99 95 92 90 87 84 81 79 74 69 66 63 55 53 52 50 44 40 39 39 35
101 108 110 109 111 114 114 112 110 109 107 103 102 99 94 89 87 85 83 80 76 72 64 60 62 59 58 51 48 45 40 38
87 95 103 112 114 114 115 115 113 111 110 108 107 105 102 97 91 88 85 85 82 79 72 63 68 69 67 60 53 49 45 43
85 90 93 97 107 116 116 116 116 115 111 111 111 108 106 104 97 93 88 89 87 87 85 84 77 71 72 67 59 54 51 50
82 87 90 93 96 104 114 115 114 117 116 114 113 112 112 109 104 101 96 92 93 91 93 89 83 82 80 74 69 63 56 53
65 74 83 90 93 96 99 101 112 114 118 118 116 113 115 114 112 107 104 99 97 97 97 97 93 85 88 81 78 72 66 58
55 60 67 78 83 87 93 97 99 108 115 116 118 116 115 116 116 112 107 105 101 99 99 102 99 95 92 86 81 80 75 67
45 50 56 64 68 76 82 89 92 95 98 110 114 119 118 119 118 117 113 109 107 102 101 98 104 101 96 91 82 83 85 78
41 41 47 52 57 63 71 77 80 85 89 94 105 114 120 122 121 118 117 114 111 108 104 103 106 106 101 100 86 88 88 85
33 35 40 43 47 53 59 64 67 73 77 83 96 105 115 121 123 122 119 119 117 114 111 109 108 108 106 103 94 87 89 88
34 35 35 35 41 45 48 54 59 62 66 72 86 99 108 118 123 123 122 122 120 117 117 117 113 111 110 109 100 93 91 83
35 36 35 34 34 35 46 46 55 58 60 66 76 92 99 108 115 120 125 126 121 121 122 124 120 117 113 112 105 99 94 92

GFSFLT2_250_spd_069.txt.gz
Wind_Speed
94 91 91 90 86 84 79 75 73 69 69 69 65 64 61 58 59 59 56 51 45 44 40 38 35 34 29 24 22 19 17 17
95 94 93 91 91 89 85 81 77 73 72 69 66 64 61 59 58 58 56 53 49 48 46 44 40 37 34 32 27 23 21 22
101 97 95 94 91 91 89 85 83 79 76 73 71 67 64 62 60 58 56 54 51 50 47 47 45 44 40 37 32 27 21 21
103 101 97 96 94 92 91 89 86 84 81 78 77 73 70 67 65 62 57 54 50 49 47 48 45 43 44 42 38 31 27 23
104 103 100 97 95 94 92 90 89 88 85 83 82 79 76 73 70 66 62 58 54 49 46 47 45 42 41 41 39 33 31 27
105 103 102 100 98 95 95 92 90 89 88 87 85 85 83 80 76 72 68 64 60 55 50 46 43 44 41 41 39 37 36 33
104 104 102 102 101 98 96 94 93 90 89 89 88 86 85 85 82 78 74 70 67 63 58 53 46 42 42 38 41 39 35 33
104 107 107 105 106 105 103 99 97 95 93 90 89 89 88 87 85 84 82 77 73 71 67 62 57 53 47 42 44 45 37 36
101 105 106 107 106 106 106 106 104 101 98 95 93 91 90 90 89 86 85 83 80 76 74 71 65 59 54 50 52 50 51 40
99 103 105 106 107 108 107 107 106 105 103 100 96 96 96 93 92 90 88 87 85 82 79 77 73 68 62 57 58 56 54 48
87 98 102 104 108 110 111 110 109 109 108 106 104 101 99 97 96 95 92 90 89 87 85 83 80 75 71 66 66 67 61 60
79 85 92 101 107 109 110 111 112 112 111 110 109 108 105 103 100 98 97 95 94 92 90 88 86 83 79 75 72 71 69 63
77 80 82 86 95 104 110 111 113 114 114 113 113 110 111 110 108 105 103 100 98 97 96 93 91 89 85 83 79 74 73 71
75 78 81 83 86 89 94 101 109 115 117 118 118 118 117 116 114 112 110 108 104 101 101 100 96 94 91 89 86 82 77 77
69 73 78 82 84 85 85 89 94 100 108 116 119 120 120 121 120 117 116 115 114 109 105 104 104 100 98 95 90 87 84 79
63 68 72 75 79 81 84 88 92 95 97 101 109 118 122 122 123 124 121 120 119 117 114 111 108 106 104 101 97 92 89 86
56 62 67 71 74 78 80 83 86 90 94 95 97 102 110 120 125 124 124 125 123 122 120 119 117 112 109 108 103 98 95 92
52 53 57 63 67 72 74 76 77 80 83 87 92 98 100 104 109 117 126 126 125 127 126 125 123 120 118 113 108 105 102 98
45 48 52 56 57 61 65 68 71 73 76 79 82 86 90 95 99 103 109 117 125 128 126 130 129 123 122 121 116 109 107 105

GFSFLT2_250_spd_072.txt.gz
Wind_Speed
98 94 90 86 83 84 78 73 75 77 75 68 69 67 66 65 63 61 57 53 48 46 42 38 35 30 28 24 20 15 16 14
100 100 97 91 89 86 85 79 78 75 73 71 67 66 65 64 65 64 61 57 55 51 48 45 40 34 33 31 29 24 22 20
102 107 100 96 91 89 90 86 84 78 76 70 70 67 65 65 66 66 62 57 54 51 51 48 45 41 40 37 36 32 26 24
101 104 105 102 96 91 89 90 90 83 77 76 74 72 69 66 64 64 64 61 54 53 49 46 45 46 46 44 42 38 34 29
95 103 108 106 101 96 93 94 93 90 84 83 80 76 74 71 69 66 64 61 58 54 51 48 48 48 48 48 46 44 39 38
93 101 106 107 105 100 98 96 97 99 89 89 86 83 79 76 73 70 67 64 61 57 54 51 49 48 48 47 45 44 43 41
89 94 100 107 107 104 101 99 97 95 96 94 92 91 88 84 81 77 74 70 67 63 59 55 52 50 48 48 45 43 44 41
86 94 99 105 107 107 104 101 99 97 97 100 99 96 94 91 87 84 81 77 74 70 66 62 59 54 51 45 48 48 46 46
84 91 100 105 110 110 109 107 104 104 98 98 101 101 100 97 94 91 88 85 81 77 73 69 66 62 58 55 47 47 50 46
77 88 95 99 106 111 111 109 109 106 103 103 101 103 104 103 100 97 93 91 88 84 80 77 72 69 66 63 58 53 47 46
69 80 86 97 103 108 111 111 111 109 107 104 103 103 103 103 103 101 98 95 92 89 86 83 80 76 74 72 67 61 56 50
67 72 80 87 99 105 109 113 113 112 111 110 108 107 102 101 101 100 99 98 96 94 89 87 85 83 81 79 75 70 64 59
70 72 75 81 93 101 108 110 112 114 115 114 113 112 106 107 105 104 102 101 99 97 96 93 90 87 86 85 82 78 74 68
73 74 74 76 81 91 99 107 111 116 116 116 116 116 114 113 111 108 107 105 104 102 99 97 95 93 91 89 88 86 82 78
74 76 76 76 77 80 85 96 107 113 115 119 119 119 118 118 117 116 114 112 110 107 105 103 100 97 96 93 92 90 88 85
66 69 73 77 80 82 85 87 92 101 111 116 118 122 125 124 123 121 120 119 118 115 112 109 106 104 102 99 97 95 95 91
58 61 64 68 72 79 85 89 91 94 98 106 115 121 122 123 126 128 127 125 123 122 121 119 117 112 108 107 103 101 99 97
51 51 53 58 65 69 73 79 85 90 95 98 103 110 116 121 124 128 129 130 130 128 126 126 125 123 118 114 112 108 105 104
48 49 53 55 56 58 60 65 71 76 83 90 97 101 104 108 114 119 123 126 128 129 129 130 128 128 126 124 119 115 111 109

GFSFLT2_250_spd_075.txt.gz
Wind_Speed
90 91 88 83 80 79 82 77 78 81 72 74 72 72 70 66 62 57 53 48 45 43 40 37 35 32 28 24 22 19 15 13
89 92 90 87 85 86 81 81 78 79 71 79 71 75 74 71 68 61 53 49 48 45 45 43 41 38 34 31 27 25 24 21
87 88 94 94 91 90 87 86 85 84 82 70 65 71 75 76 74 68 62 55 52 48 48 45 44 43 38 35 35 34 31 27
84 93 92 93 94 93 90 88 88 90 91 76 73 71 72 75 75 73 68 62 46 49 43 42 44 40 45 44 44 41 38 35
83 85 91 92 95 95 95 96 92 93 92 81 81 76 72 70 70 72 72 67 57 50 44 49 38 40 42 44 46 44 44 40
90 93 91 91 91 93 97 97 94 96 96 87 86 82 77 74 71 70 71 69 66 57 50 51 54 37 44 49 46 46 44 46
89 89 90 87 89 92 96 99 105 111 101 92 89 87 84 80 77 73 73 70 68 66 64 62 58 59 48 48 50 48 48 48
91 92 92 91 91 90 93 100 106 111 99 85 90 96 92 88 84 79 77 74 71 69 66 65 60 61 55 50 47 44 47 51
96 99 98 96 95 95 98 101 110 114 101 99 98 99 99 96 91 88 84 80 76 74 71 68 68 65 63 60 58 56 54 52
84 87 89 92 92 96 99 101 107 111 103 103 101 102 105 102 99 95 91 86 83 79 77 75 72 69 66 64 61 59 56 53
75 75 81 79 84 92 95 100 107 109 111 110 108 109 105 106 105 102 98 94 90 87 84 81 78 75 72 70 66 63 59 56
71 74 78 80 78 83 93 98 103 106 113 114 113 114 109 103 104 105 104 101 99 96 93 89 86 83 80 77 73 71 68 64
70 73 77 73 83 86 91 95 97 104 109 115 119 118 107 109 108 108 109 108 105 103 100 97 94 91 88 85 81 78 75 71
70 73 74 72 83 86 87 91 95 102 108 115 118 121 117 113 114 112 110 109 108 108 105 103 101 98 95 93 89 86 83 79
72 73 73 76 80 80 83 87 93 97 104 110 115 119 121 121 117 117 114 113 112 110 109 108 106 103 101 99 96 93 89 86
64 69 75 75 78 79 81 81 83 89 97 105 112 116 120 124 124 122 120 117 116 116 114 112 110 107 105 102 99 97 95 91
60 65 69 74 77 79 81 82 81 83 87 94 103 111 116 120 126 127 126 125 123 120 119 118 116 114 110 107 103 100 98 97
54 59 64 67 73 77 80 82 83 85 86 88 92 99 109 116 121 126 128 130 130 130 128 126 124 121 118 114 110 106 102 100
50 49 55 60 67 71 75 78 81 86 88 91 92 94 98 103 111 120 125 128 132 134 135 134 132 129 125 121 117 113 110 107